Find Starlink 30876

NORAD ID: 58404 Int'l Des: 2023-180 Owner: SPXS Country: US Constellation: starlink operational
LEOCIRCULAR

現在のビュー

3D地球を読み込み中...

About Starlink 30876

Starlink 30876 (NORAD 58404) is a starlink constellation satellite (v2 mini) launched Nov 22, 2023 by SPXS of US. It operates in LEO, CIRCULAR orbit with a mass of 730.00 kg.

Starlink 30876について

説明を読み込み中...

次回通過

Passes for default location (London). Set your location on the main map for personalized predictions.

高度履歴

Loading altitude history...

軌道要素

1 58404U 23180C 26175.27273620 -.00002105 00000-0 -66961-4 0 9997
2 58404 43.0008 170.8726 0001927 275.7552 84.3080 15.27582381143925
Epoch: Jun 24, 2026 • Age: 8 hours

現在のステータス

高度 482.5 km
速度 7.63 km/s
衛星直下点 16.54°N, 57.22°E
打ち上げ日 Nov 22, 2023
運用期間 2.5 years
タイプ internet

技術仕様

分類 Payload
質量 730.00 kg
乾燥質量 700.00 kg
総質量 730.00 kg
長さ 0.30 m
直径 4.10 m
スパン 29.00 m
形状 Box + pan
製造者 SPXS
バスタイプ Starlink V2M
フェーズステータス In Orbit
所有者/国 SPXS/US

Most Searched